QPF
0.00 0.00 0.00 0.00 0.00 0.00 0.00 0.00 0.00 0.00 0.00 0.00 0.00 0.00 0.00 0.00 0.00 0.00 0.00 0.00 0.00 0.01 0.01 0.01 0.01 0.02 0.04 0.06 0.08 0.12 0.16 0.19 0.25 0.34 0.38 0.35 0.33 0.30 0.30 0.32 0.28 0.28 0.26 0.26
0.00 0.00 0.00 0.00 0.00 0.00 0.00 0.00 0.00 0.00 0.00 0.00 0.01 0.01 0.01 0.01 0.01 0.01 0.01 0.01 0.01 0.01 0.01 0.02 0.02 0.03 0.04 0.05 0.07 0.09 0.12 0.17 0.21 0.27 0.37 0.39 0.37 0.34 0.38 0.42 0.35 0.31 0.28 0.25
0.00 0.00 0.00 0.00 0.00 0.00 0.00 0.00 0.00 0.00 0.00 0.00 0.01 0.02 0.02 0.02 0.03 0.02 0.01 0.01 0.01 0.01 0.01 0.02 0.02 0.03 0.04 0.04 0.07 0.09 0.11 0.16 0.21 0.28 0.37 0.44 0.43 0.41 0.39 0.36 0.33 0.28 0.26 0.25
0.00 0.00 0.00 0.00 0.00 0.00 0.00 0.00 0.00 0.00 0.00 0.01 0.01 0.03 0.05 0.05 0.05 0.03 0.02 0.03 0.02 0.02 0.02 0.03 0.03 0.03 0.03 0.04 0.06 0.08 0.10 0.17 0.25 0.29 0.31 0.36 0.41 0.41 0.38 0.32 0.28 0.25 0.23 0.21
0.00 0.00 0.00 0.00 0.00 0.00 0.00 0.00 0.00 0.00 0.00 0.01 0.01 0.02 0.04 0.06 0.07 0.04 0.02 0.03 0.03 0.02 0.02 0.02 0.02 0.02 0.03 0.04 0.06 0.09 0.11 0.14 0.19 0.24 0.24 0.29 0.33 0.37 0.38 0.33 0.31 0.29 0.25 0.23
0.00 0.00 0.00 0.00 0.00 0.00 0.00 0.00 0.00 0.00 0.00 0.01 0.01 0.02 0.05 0.07 0.07 0.04 0.03 0.03 0.03 0.02 0.02 0.02 0.02 0.02 0.03 0.04 0.06 0.07 0.10 0.14 0.16 0.18 0.21 0.23 0.28 0.32 0.34 0.34 0.32 0.33 0.29 0.27
0.00 0.00 0.00 0.00 0.00 0.00 0.00 0.00 0.01 0.01 0.01 0.01 0.01 0.02 0.05 0.05 0.06 0.05 0.05 0.04 0.03 0.03 0.04 0.03 0.03 0.03 0.04 0.04 0.05 0.06 0.08 0.12 0.16 0.19 0.23 0.28 0.30 0.34 0.37 0.38 0.35 0.33 0.30 0.29
0.00 0.00 0.00 0.00 0.00 0.00 0.00 0.00 0.01 0.01 0.00 0.01 0.02 0.04 0.04 0.04 0.04 0.04 0.04 0.04 0.04 0.03 0.03 0.03 0.03 0.04 0.05 0.06 0.06 0.07 0.08 0.11 0.12 0.14 0.15 0.19 0.24 0.26 0.30 0.30 0.30 0.32 0.29 0.24
0.00 0.00 0.00 0.00 0.00 0.00 0.00 0.00 0.01 0.01 0.00 0.02 0.03 0.03 0.03 0.03 0.04 0.05 0.04 0.04 0.04 0.04 0.03 0.03 0.03 0.04 0.05 0.06 0.05 0.06 0.06 0.07 0.08 0.11 0.11 0.12 0.15 0.16 0.16 0.16 0.17 0.18 0.17 0.14
0.00 0.00 0.00 0.00 0.00 0.00 0.00 0.01 0.01 0.01 0.02 0.03 0.03 0.04 0.04 0.03 0.04 0.05 0.04 0.03 0.03 0.04 0.04 0.03 0.02 0.02 0.03 0.04 0.06 0.06 0.05 0.04 0.05 0.09 0.11 0.10 0.11 0.11 0.11 0.11 0.11 0.11 0.09 0.08
0.00 0.01 0.00 0.00 0.00 0.00 0.01 0.02 0.02 0.02 0.01 0.03 0.03 0.04 0.04 0.04 0.04 0.06 0.05 0.04 0.04 0.04 0.04 0.03 0.03 0.02 0.02 0.02 0.04 0.05 0.04 0.05 0.06 0.08 0.09 0.10 0.11 0.11 0.10 0.10 0.10 0.09 0.07 0.04
0.00 0.01 0.01 0.01 0.00 0.00 0.01 0.02 0.03 0.04 0.02 0.02 0.03 0.04 0.02 0.05 0.06 0.06 0.05 0.05 0.05 0.04 0.03 0.04 0.04 0.03 0.03 0.04 0.04 0.04 0.05 0.06 0.07 0.07 0.08 0.09 0.08 0.08 0.06 0.06 0.06 0.06 0.05 0.04
0.00 0.01 0.02 0.02 0.01 0.01 0.01 0.01 0.01 0.02 0.03 0.04 0.05 0.04 0.02 0.04 0.08 0.10 0.09 0.07 0.09 0.09 0.06 0.04 0.05 0.05 0.06 0.07 0.06 0.05 0.05 0.06 0.08 0.07 0.06 0.07 0.07 0.07 0.06 0.05 0.03 0.03 0.02 0.02
0.00 0.01 0.02 0.02 0.02 0.01 0.01 0.01 0.01 0.03 0.05 0.05 0.04 0.03 0.02 0.05 0.09 0.11 0.13 0.10 0.08 0.07 0.08 0.08 0.08 0.07 0.07 0.09 0.08 0.07 0.06 0.06 0.06 0.08 0.07 0.05 0.03 0.04 0.04 0.03 0.02 0.01 0.01 0.00
0.01 0.02 0.01 0.00 0.00 0.00 0.01 0.01 0.01 0.02 0.03 0.03 0.03 0.03 0.02 0.02 0.04 0.08 0.11 0.10 0.09 0.10 0.12 0.12 0.11 0.09 0.09 0.09 0.09 0.08 0.06 0.05 0.04 0.05 0.06 0.05 0.02 0.01 0.01 0.01 0.01 0.01 0.00 0.00
0.01 0.02 0.02 0.02 0.00 0.00 0.01 0.01 0.01 0.02 0.02 0.02 0.03 0.03 0.03 0.03 0.03 0.06 0.10 0.11 0.11 0.11 0.13 0.14 0.12 0.11 0.11 0.09 0.08 0.07 0.05 0.04 0.03 0.02 0.03 0.04 0.03 0.01 0.00 0.00 0.00 0.00 0.00 0.00
0.01 0.03 0.04 0.04 0.01 0.02 0.04 0.02 0.02 0.02 0.01 0.02 0.03 0.02 0.03 0.04 0.04 0.06 0.10 0.14 0.12 0.12 0.12 0.12 0.11 0.10 0.09 0.07 0.06 0.05 0.03 0.02 0.01 0.01 0.01 0.01 0.01 0.01 0.00 0.00 0.00 0.00 0.00 0.00
0.01 0.03 0.04 0.04 0.04 0.04 0.03 0.01 0.01 0.02 0.02 0.01 0.01 0.02 0.03 0.05 0.07 0.09 0.12 0.15 0.17 0.14 0.11 0.10 0.10 0.06 0.06 0.06 0.04 0.03 0.02 0.01 0.01 0.01 0.01 0.01 0.01 0.00 0.00 0.00 0.00 0.00 0.00 0.00
0.00 0.02 0.03 0.04 0.04 0.03 0.01 0.01 0.01 0.03 0.03 0.02 0.02 0.01 0.02 0.04 0.08 0.15 0.15 0.13 0.14 0.13 0.10 0.08 0.07 0.04 0.03 0.03 0.02 0.01 0.01 0.01 0.01 0.01 0.02 0.01 0.01 0.01 0.00 0.01 0.01 0.01 0.01 0.01
0.00 0.01 0.03 0.03 0.03 0.03 0.02 0.01 0.01 0.02 0.03 0.01 0.01 0.01 0.01 0.02 0.04 0.08 0.11 0.11 0.10 0.10 0.08 0.07 0.04 0.03 0.04 0.02 0.02 0.02 0.01 0.01 0.01 0.01 0.02 0.01 0.01 0.01 0.01 0.01 0.01 0.01 0.01 0.01
0.01 0.02 0.02 0.03 0.02 0.02 0.01 0.00 0.01 0.03 0.03 0.01 0.01 0.01 0.03 0.05 0.05 0.03 0.05 0.08 0.09 0.08 0.07 0.06 0.04 0.02 0.03 0.02 0.02 0.02 0.02 0.02 0.02 0.01 0.01 0.01 0.01 0.01 0.01 0.01 0.01 0.01 0.01 0.01
0.01 0.02 0.02 0.01 0.01 0.01 0.00 0.01 0.02 0.02 0.01 0.00 0.01 0.01 0.02 0.04 0.05 0.04 0.05 0.07 0.07 0.06 0.06 0.05 0.03 0.03 0.03 0.02 0.02 0.02 0.03 0.03 0.03 0.01 0.01 0.01 0.01 0.00 0.00 0.01 0.01 0.01 0.01 0.01
0.00 0.01 0.01 0.01 0.01 0.01 0.00 0.00 0.01 0.00 0.00 0.01 0.02 0.02 0.03 0.04 0.05 0.05 0.05 0.06 0.05 0.04 0.05 0.05 0.05 0.04 0.03 0.03 0.03 0.03 0.03 0.03 0.01 0.01 0.01 0.01 0.01 0.01 0.01 0.01 0.01 0.01 0.01 0.01
0.00 0.00 0.00 0.00 0.00 0.00 0.00 0.00 0.00 0.01 0.01 0.01 0.02 0.03 0.03 0.04 0.04 0.05 0.06 0.05 0.04 0.04 0.04 0.05 0.05 0.05 0.04 0.03 0.03 0.04 0.03 0.02 0.01 0.01 0.01 0.01 0.01 0.01 0.01 0.00 0.00 0.00 0.00 0.00
0.00 0.00 0.00 0.01 0.01 0.01 0.00 0.00 0.00 0.00 0.01 0.02 0.02 0.03 0.04 0.04 0.03 0.04 0.06 0.06 0.05 0.05 0.04 0.04 0.06 0.07 0.05 0.03 0.03 0.03 0.03 0.02 0.02 0.02 0.02 0.02 0.02 0.01 0.00 0.00 0.00 0.00 0.00 0.00
0.00 0.00 0.00 0.00 0.00 0.00 0.00 0.00 0.00 0.01 0.02 0.03 0.03 0.03 0.03 0.02 0.02 0.01 0.02 0.03 0.03 0.03 0.03 0.04 0.05 0.04 0.03 0.03 0.03 0.02 0.01 0.01 0.02 0.02 0.02 0.01 0.01 0.01 0.00 0.00 0.00 0.00 0.00 0.00
MSLP
1011.74 1011.94 1012.01 1011.96 1011.81 1011.60 1011.36 1011.12 1010.89 1010.67 1010.46 1010.22 1009.95 1009.64 1009.28 1008.89 1008.49 1008.09 1007.72 1007.39 1007.14 1006.96 1006.87 1006.88 1007.00 1007.24 1007.60 1008.09 1008.70 1009.40 1010.18 1011.00 1011.80 1012.56 1013.24 1013.83 1014.32 1014.73 1015.09 1015.42 1015.76 1016.11 1016.49 1016.90
1011.59 1011.74 1011.78 1011.71 1011.57 1011.39 1011.19 1010.99 1010.80 1010.61 1010.42 1010.21 1009.98 1009.73 1009.45 1009.17 1008.91 1008.66 1008.44 1008.24 1008.08 1007.95 1007.85 1007.79 1007.79 1007.88 1008.06 1008.37 1008.81 1009.38 1010.06 1010.82 1011.60 1012.36 1013.08 1013.72 1014.28 1014.77 1015.20 1015.61 1016.02 1016.45 1016.89 1017.35
1011.34 1011.44 1011.45 1011.38 1011.27 1011.13 1010.98 1010.83 1010.69 1010.53 1010.37 1010.18 1009.98 1009.78 1009.59 1009.44 1009.32 1009.25 1009.21 1009.18 1009.16 1009.11 1009.03 1008.93 1008.82 1008.73 1008.72 1008.81 1009.04 1009.41 1009.94 1010.58 1011.31 1012.07 1012.82 1013.53 1014.18 1014.77 1015.31 1015.83 1016.34 1016.85 1017.37 1017.89
1010.99 1011.05 1011.05 1011.00 1010.93 1010.85 1010.77 1010.68 1010.58 1010.46 1010.31 1010.13 1009.95 1009.79 1009.68 1009.64 1009.67 1009.78 1009.94 1010.11 1010.25 1010.33 1010.30 1010.18 1009.98 1009.74 1009.52 1009.38 1009.37 1009.53 1009.87 1010.38 1011.02 1011.76 1012.54 1013.32 1014.07 1014.78 1015.46 1016.09 1016.71 1017.32 1017.91 1018.49
1010.58 1010.62 1010.62 1010.60 1010.59 1010.58 1010.57 1010.55 1010.49 1010.39 1010.25 1010.07 1009.90 1009.76 1009.70 1009.75 1009.92 1010.21 1010.56 1010.93 1011.25 1011.47 1011.54 1011.43 1011.18 1010.83 1010.43 1010.08 1009.85 1009.79 1009.94 1010.30 1010.85 1011.56 1012.35 1013.20 1014.06 1014.89 1015.68 1016.44 1017.15 1017.84 1018.49 1019.10
1010.15 1010.18 1010.21 1010.24 1010.29 1010.35 1010.42 1010.45 1010.43 1010.35 1010.20 1010.01 1009.82 1009.69 1009.66 1009.78 1010.06 1010.49 1011.02 1011.58 1012.09 1012.46 1012.64 1012.60 1012.34 1011.92 1011.41 1010.89 1010.47 1010.23 1010.21 1010.44 1010.90 1011.57 1012.38 1013.28 1014.21 1015.14 1016.04 1016.88 1017.67 1018.41 1019.08 1019.70
1009.76 1009.80 1009.85 1009.93 1010.04 1010.18 1010.30 1010.39 1010.40 1010.33 1010.17 1009.96 1009.75 1009.61 1009.59 1009.75 1010.11 1010.66 1011.33 1012.04 1012.72 1013.25 1013.56 1013.60 1013.39 1012.96 1012.40 1011.80 1011.26 1010.89 1010.75 1010.87 1011.27 1011.89 1012.70 1013.62 1014.61 1015.60 1016.56 1017.45 1018.27 1019.02 1019.68 1020.27
1009.46 1009.50 1009.58 1009.71 1009.87 1010.06 1010.23 1010.35 1010.38 1010.31 1010.15 1009.92 1009.70 1009.54 1009.52 1009.71 1010.12 1010.73 1011.50 1012.34 1013.15 1013.82 1014.26 1014.42 1014.30 1013.93 1013.39 1012.78 1012.21 1011.78 1011.58 1011.64 1011.98 1012.57 1013.36 1014.29 1015.28 1016.29 1017.26 1018.15 1018.96 1019.67 1020.28 1020.81
1009.26 1009.32 1009.42 1009.58 1009.78 1009.99 1010.19 1010.33 1010.37 1010.30 1010.13 1009.90 1009.67 1009.51 1009.50 1009.70 1010.13 1010.78 1011.61 1012.53 1013.43 1014.21 1014.77 1015.06 1015.06 1014.81 1014.36 1013.82 1013.29 1012.88 1012.68 1012.73 1013.04 1013.59 1014.35 1015.25 1016.21 1017.19 1018.12 1018.96 1019.71 1020.35 1020.89 1021.34
1009.18 1009.25 1009.37 1009.53 1009.74 1009.95 1010.15 1010.29 1010.33 1010.26 1010.11 1009.89 1009.68 1009.54 1009.54 1009.76 1010.21 1010.88 1011.73 1012.68 1013.63 1014.48 1015.14 1015.56 1015.70 1015.59 1015.29 1014.88 1014.47 1014.15 1014.00 1014.07 1014.37 1014.90 1015.61 1016.45 1017.35 1018.25 1019.10 1019.87 1020.53 1021.07 1021.52 1021.87
1009.19 1009.27 1009.39 1009.55 1009.74 1009.94 1010.11 1010.22 1010.26 1010.20 1010.06 1009.89 1009.72 1009.63 1009.68 1009.93 1010.39 1011.07 1011.91 1012.86 1013.82 1014.71 1015.44 1015.96 1016.23 1016.29 1016.16 1015.93 1015.69 1015.50 1015.44 1015.57 1015.89 1016.39 1017.04 1017.80 1018.60 1019.40 1020.15 1020.81 1021.37 1021.83 1022.18 1022.45
1009.26 1009.35 1009.47 1009.62 1009.78 1009.93 1010.05 1010.13 1010.15 1010.10 1010.00 1009.88 1009.79 1009.78 1009.91 1010.21 1010.70 1011.38 1012.21 1013.14 1014.08 1014.97 1015.73 1016.32 1016.71 1016.92 1016.97 1016.94 1016.87 1016.83 1016.90 1017.09 1017.43 1017.91 1018.50 1019.16 1019.86 1020.54 1021.18 1021.74 1022.21 1022.58 1022.87 1023.08
1009.34 1009.45 1009.58 1009.70 1009.82 1009.91 1009.98 1010.02 1010.01 1009.97 1009.92 1009.88 1009.89 1009.98 1010.21 1010.59 1011.14 1011.83 1012.64 1013.53 1014.43 1015.29 1016.06 1016.68 1017.16 1017.50 1017.71 1017.85 1017.95 1018.07 1018.26 1018.52 1018.88 1019.33 1019.85 1020.42 1021.01 1021.58 1022.11 1022.58 1022.98 1023.31 1023.56 1023.75
1009.37 1009.52 1009.66 1009.78 1009.85 1009.90 1009.91 1009.90 1009.86 1009.83 1009.82 1009.87 1009.99 1010.22 1010.56 1011.05 1011.66 1012.38 1013.19 1014.04 1014.89 1015.70 1016.44 1017.07 1017.60 1018.02 1018.36 1018.64 1018.89 1019.15 1019.43 1019.75 1020.12 1020.54 1021.00 1021.48 1021.96 1022.44 1022.88 1023.29 1023.65 1023.96 1024.21 1024.41
1009.32 1009.53 1009.70 1009.82 1009.88 1009.88 1009.84 1009.78 1009.73 1009.70 1009.74 1009.87 1010.11 1010.46 1010.94 1011.54 1012.23 1013.00 1013.82 1014.64 1015.44 1016.20 1016.89 1017.50 1018.04 1018.51 1018.92 1019.30 1019.66 1020.01 1020.36 1020.72 1021.10 1021.49 1021.88 1022.28 1022.67 1023.06 1023.44 1023.81 1024.16 1024.47 1024.76 1024.99
1009.17 1009.44 1009.66 1009.81 1009.87 1009.85 1009.78 1009.69 1009.62 1009.61 1009.69 1009.89 1010.23 1010.71 1011.32 1012.04 1012.82 1013.65 1014.49 1015.29 1016.05 1016.75 1017.39 1017.96 1018.47 1018.95 1019.40 1019.82 1020.24 1020.65 1021.04 1021.42 1021.79 1022.14 1022.47 1022.80 1023.12 1023.45 1023.79 1024.13 1024.48 1024.82 1025.15 1025.44
1008.92 1009.25 1009.53 1009.72 1009.81 1009.80 1009.73 1009.63 1009.55 1009.55 1009.68 1009.95 1010.38 1010.97 1011.69 1012.52 1013.40 1014.29 1015.15 1015.96 1016.69 1017.34 1017.92 1018.43 1018.91 1019.36 1019.80 1020.23 1020.67 1021.09 1021.50 1021.87 1022.22 1022.53 1022.82 1023.09 1023.35 1023.63 1023.93 1024.27 1024.62 1025.00 1025.36 1025.71
1008.58 1008.97 1009.30 1009.55 1009.69 1009.72 1009.67 1009.59 1009.53 1009.56 1009.72 1010.05 1010.55 1011.23 1012.05 1012.97 1013.93 1014.89 1015.79 1016.60 1017.31 1017.93 1018.45 1018.91 1019.33 1019.74 1020.14 1020.55 1020.97 1021.38 1021.78 1022.14 1022.46 1022.74 1022.98 1023.21 1023.43 1023.67 1023.95 1024.27 1024.63 1025.02 1025.42 1025.80
1008.18 1008.60 1008.99 1009.30 1009.50 1009.59 1009.60 1009.56 1009.55 1009.62 1009.82 1010.20 1010.76 1011.51 1012.40 1013.39 1014.42 1015.42 1016.36 1017.19 1017.89 1018.48 1018.96 1019.37 1019.74 1020.09 1020.44 1020.81 1021.20 1021.58 1021.95 1022.29 1022.59 1022.84 1023.06 1023.25 1023.44 1023.66 1023.91 1024.21 1024.56 1024.95 1025.36 1025.76
1007.77 1008.19 1008.61 1008.98 1009.25 1009.42 1009.51 1009.55 1009.61 1009.73 1009.99 1010.42 1011.03 1011.82 1012.75 1013.79 1014.85 1015.90 1016.85 1017.70 1018.40 1018.97 1019.42 1019.79 1020.11 1020.41 1020.71 1021.04 1021.39 1021.74 1022.09 1022.41 1022.69 1022.93 1023.14 1023.31 1023.48 1023.67 1023.90 1024.18 1024.51 1024.88 1025.28 1025.67
1007.37 1007.76 1008.20 1008.61 1008.96 1009.23 1009.42 1009.56 1009.71 1009.91 1010.23 1010.70 1011.35 1012.16 1013.12 1014.17 1015.25 1016.30 1017.27 1018.12 1018.82 1019.38 1019.81 1020.15 1020.43 1020.69 1020.96 1021.25 1021.57 1021.90 1022.23 1022.55 1022.83 1023.07 1023.27 1023.45 1023.61 1023.78 1023.99 1024.24 1024.54 1024.88 1025.24 1025.62
1007.02 1007.36 1007.79 1008.24 1008.67 1009.04 1009.34 1009.61 1009.86 1010.15 1010.54 1011.06 1011.73 1012.55 1013.50 1014.54 1015.61 1016.65 1017.60 1018.44 1019.13 1019.68 1020.10 1020.42 1020.69 1020.93 1021.17 1021.45 1021.75 1022.07 1022.41 1022.73 1023.02 1023.28 1023.49 1023.68 1023.84 1024.01 1024.19 1024.42 1024.68 1024.98 1025.31 1025.65
1006.73 1007.01 1007.42 1007.91 1008.41 1008.88 1009.31 1009.70 1010.07 1010.47 1010.93 1011.49 1012.18 1012.99 1013.91 1014.91 1015.94 1016.94 1017.86 1018.67 1019.34 1019.88 1020.29 1020.60 1020.86 1021.10 1021.35 1021.62 1021.92 1022.26 1022.61 1022.95 1023.27 1023.55 1023.79 1023.99 1024.17 1024.33 1024.51 1024.70 1024.94 1025.20 1025.50 1025.81
1006.49 1006.72 1007.13 1007.65 1008.22 1008.80 1009.35 1009.87 1010.36 1010.86 1011.39 1011.99 1012.68 1013.47 1014.35 1015.29 1016.25 1017.18 1018.05 1018.81 1019.45 1019.97 1020.38 1020.69 1020.96 1021.21 1021.47 1021.76 1022.08 1022.44 1022.81 1023.18 1023.54 1023.85 1024.12 1024.35 1024.54 1024.71 1024.87 1025.06 1025.26 1025.50 1025.77 1026.05
1006.30 1006.50 1006.92 1007.48 1008.13 1008.81 1009.48 1010.12 1010.73 1011.32 1011.91 1012.54 1013.23 1013.98 1014.80 1015.66 1016.53 1017.38 1018.18 1018.88 1019.49 1019.98 1020.38 1020.70 1020.99 1021.26 1021.54 1021.86 1022.21 1022.59 1023.00 1023.40 1023.79 1024.13 1024.43 1024.67 1024.88 1025.06 1025.22 1025.39 1025.59 1025.81 1026.06 1026.33
1006.13 1006.34 1006.79 1007.41 1008.14 1008.93 1009.71 1010.46 1011.16 1011.83 1012.47 1013.12 1013.79 1014.50 1015.25 1016.03 1016.81 1017.57 1018.28 1018.92 1019.48 1019.95 1020.34 1020.67 1020.97 1021.26 1021.57 1021.92 1022.30 1022.71 1023.14 1023.57 1023.97 1024.34 1024.65 1024.91 1025.13 1025.31 1025.47 1025.64 1025.83 1026.04 1026.29 1026.55
Thickness
5697 5694 5696 5699 5699 5697 5693 5691 5693 5698 5705 5700 5699 5700 5703 5707 5710 5710 5712 5715 5716 5716 5720 5724 5727 5730 5731 5732 5732 5732 5730 5729 5726 5722 5719 5717 5716 5715 5713 5710 5707 5705 5706 5706
5689 5691 5700 5701 5696 5690 5688 5686 5692 5696 5699 5694 5693 5693 5696 5696 5695 5695 5696 5699 5700 5704 5706 5710 5714 5719 5721 5722 5723 5724 5723 5723 5722 5721 5717 5715 5713 5709 5706 5703 5700 5698 5699 5699
5689 5697 5698 5691 5687 5683 5685 5685 5688 5687 5692 5693 5688 5684 5687 5686 5687 5685 5686 5686 5688 5689 5692 5695 5701 5704 5708 5710 5713 5715 5715 5715 5715 5713 5711 5707 5703 5699 5696 5693 5690 5688 5688 5687
5692 5698 5691 5686 5686 5685 5682 5692 5688 5684 5680 5686 5685 5677 5686 5683 5676 5673 5673 5674 5674 5676 5679 5682 5687 5690 5694 5698 5702 5704 5705 5705 5706 5705 5704 5700 5696 5691 5687 5683 5680 5676 5675 5675
5689 5693 5687 5683 5688 5687 5685 5691 5685 5683 5680 5680 5686 5677 5686 5682 5671 5665 5663 5661 5662 5663 5666 5669 5672 5677 5681 5686 5690 5692 5694 5695 5696 5696 5695 5692 5688 5683 5677 5672 5668 5663 5662 5662
5694 5699 5692 5689 5692 5689 5686 5682 5681 5680 5680 5667 5682 5679 5677 5678 5675 5663 5657 5654 5653 5653 5655 5657 5661 5665 5669 5673 5677 5680 5682 5683 5685 5685 5684 5682 5678 5673 5667 5661 5656 5652 5649 5648
5687 5693 5694 5691 5681 5684 5679 5668 5661 5662 5665 5672 5689 5678 5673 5676 5674 5665 5654 5647 5646 5646 5646 5648 5650 5653 5656 5659 5663 5666 5669 5670 5671 5672 5671 5669 5667 5662 5656 5651 5646 5642 5638 5636
5677 5680 5688 5686 5679 5676 5676 5671 5657 5651 5661 5674 5678 5670 5665 5666 5664 5658 5649 5643 5640 5639 5638 5638 5638 5640 5643 5646 5649 5652 5655 5655 5657 5657 5656 5654 5652 5649 5643 5638 5635 5630 5626 5624
5675 5675 5685 5684 5683 5678 5671 5672 5680 5665 5668 5664 5669 5664 5653 5653 5648 5644 5638 5635 5632 5630 5629 5628 5628 5629 5631 5633 5635 5639 5641 5641 5642 5641 5640 5639 5637 5635 5630 5626 5623 5619 5615 5614
5680 5667 5681 5681 5679 5678 5677 5676 5666 5660 5649 5649 5662 5662 5660 5649 5643 5637 5633 5628 5624 5621 5619 5618 5618 5618 5619 5621 5622 5625 5626 5627 5628 5628 5627 5624 5621 5619 5617 5614 5610 5607 5605 5603
5679 5664 5671 5673 5669 5672 5668 5664 5662 5665 5665 5652 5649 5655 5665 5660 5650 5638 5629 5623 5616 5612 5609 5608 5607 5608 5609 5610 5611 5612 5612 5613 5613 5612 5611 5610 5606 5604 5602 5600 5598 5595 5593 5592
5675 5668 5664 5672 5678 5675 5671 5667 5663 5651 5654 5659 5656 5646 5655 5657 5648 5635 5623 5614 5607 5603 5599 5598 5597 5598 5599 5598 5598 5599 5599 5600 5599 5598 5597 5595 5593 5591 5589 5587 5585 5584 5583 5582
5670 5660 5653 5659 5661 5665 5664 5665 5664 5661 5656 5654 5650 5642 5645 5644 5634 5625 5614 5605 5599 5594 5591 5589 5588 5587 5586 5585 5585 5586 5586 5587 5586 5586 5584 5582 5580 5579 5577 5575 5574 5573 5572 5571
5669 5662 5655 5649 5655 5662 5660 5662 5663 5658 5651 5651 5653 5642 5633 5628 5620 5611 5603 5597 5591 5586 5583 5580 5578 5576 5575 5574 5574 5574 5573 5573 5573 5573 5571 5569 5568 5566 5565 5564 5563 5562 5561 5561
5666 5660 5662 5664 5664 5662 5660 5660 5661 5657 5655 5650 5649 5644 5634 5625 5615 5605 5597 5590 5584 5579 5576 5572 5569 5567 5565 5564 5564 5563 5563 5562 5562 5562 5561 5559 5557 5555 5554 5553 5552 5552 5551 5551
5663 5659 5661 5658 5664 5663 5658 5659 5657 5655 5654 5651 5645 5635 5634 5623 5610 5599 5591 5585 5579 5573 5569 5564 5561 5558 5556 5555 5554 5553 5552 5552 5552 5552 5551 5549 5548 5547 5545 5544 5543 5542 5541 5540
5665 5657 5653 5653 5663 5659 5650 5658 5655 5652 5652 5647 5639 5633 5624 5611 5602 5595 5587 5581 5574 5568 5562 5557 5554 5551 5549 5547 5545 5544 5544 5545 5544 5544 5543 5542 5540 5539 5538 5537 5535 5533 5531 5530
5662 5658 5656 5655 5653 5639 5655 5665 5660 5651 5645 5645 5639 5629 5620 5608 5598 5590 5583 5576 5568 5561 5556 5551 5548 5545 5542 5540 5540 5540 5539 5539 5538 5537 5536 5534 5533 5531 5529 5527 5525 5524 5522 5521
5667 5659 5655 5653 5651 5654 5655 5657 5655 5647 5638 5639 5631 5619 5609 5599 5588 5578 5574 5570 5563 5557 5551 5546 5543 5540 5537 5536 5535 5534 5533 5532 5531 5529 5528 5527 5525 5523 5521 5520 5518 5516 5514 5513
5663 5661 5657 5655 5646 5645 5653 5659 5659 5649 5633 5634 5627 5614 5604 5598 5590 5576 5568 5563 5556 5550 5545 5541 5538 5535 5532 5531 5530 5529 5528 5526 5525 5523 5520 5518 5517 5515 5514 5512 5511 5509 5507 5506
5657 5656 5655 5655 5651 5657 5656 5656 5652 5637 5635 5633 5625 5615 5607 5602 5598 5580 5566 5558 5550 5544 5540 5536 5534 5531 5528 5525 5524 5523 5521 5519 5517 5515 5513 5511 5509 5508 5506 5504 5503 5502 5501 5498
5662 5660 5657 5656 5650 5649 5651 5650 5644 5638 5638 5632 5622 5613 5604 5594 5584 5572 5562 5552 5545 5539 5535 5532 5530 5526 5523 5521 5519 5517 5514 5511 5509 5507 5506 5504 5503 5503 5500 5498 5496 5495 5493 5492
5668 5667 5667 5660 5651 5645 5646 5644 5641 5641 5634 5626 5617 5608 5597 5585 5576 5566 5557 5549 5542 5537 5532 5528 5525 5521 5518 5515 5514 5510 5506 5504 5502 5500 5498 5497 5495 5494 5493 5492 5490 5489 5488 5490
5665 5663 5661 5654 5646 5642 5641 5641 5640 5637 5629 5622 5613 5602 5592 5581 5570 5561 5552 5545 5538 5533 5528 5524 5520 5516 5512 5509 5507 5504 5501 5498 5496 5494 5492 5490 5489 5488 5486 5486 5486 5485 5485 5484
5669 5662 5659 5652 5643 5639 5636 5636 5633 5628 5623 5614 5605 5596 5587 5577 5567 5558 5550 5542 5536 5530 5525 5521 5516 5512 5507 5504 5501 5498 5495 5493 5491 5489 5488 5486 5485 5483 5481 5479 5475 5476 5471 5469
5672 5667 5663 5661 5652 5647 5634 5631 5629 5622 5615 5607 5599 5589 5581 5574 5564 5556 5548 5541 5534 5528 5523 5518 5513 5508 5504 5500 5496 5493 5491 5489 5486 5485 5483 5483 5481 5479 5478 5475 5471 5462 5462 5459